Location: Unspecified
(0.0000°N, 0.0000°E)
Time: 12:45:41
(UTC+00:00)

Tiros 1 despin weight - Visible Passes

Search period start: 01 August 2021 00:00
Search period end: 11 August 2021 00:00
Orbit: 593 x 642 km, 48.2° (Epoch: 31 July)

Date Brightness Start Highest point End Pass type
(mag) Time Alt. Az. Time Alt. Az. Time Alt. Az.
03 Aug ? 20:03:56 10° N 20:04:08 11° N 20:04:08 11° N visible
04 Aug ? 20:18:50 10° NNW 20:20:04 18° NNW 20:20:04 18° NNW visible
05 Aug ? 20:34:52 10° NW 20:36:07 18° NW 20:36:07 18° NW visible
06 Aug ? 19:10:27 10° N 19:14:14 25° NE 19:15:11 23° ENE visible
06 Aug ? 20:51:57 10° WNW 20:52:15 11° WNW 20:52:15 11° WNW visible
07 Aug ? 19:25:53 10° NNW 19:30:28 69° NE 19:31:24 52° ESE visible
08 Aug ? 19:42:18 10° WNW 19:46:39 42° SW 19:47:41 36° SSW visible
09 Aug ? 20:00:01 10° W 20:02:53 16° SW 20:04:02 15° SSW visible
10 Aug ? 18:33:05 10° NW 18:37:42 79° SW 18:42:17 10° SE visible
